Change the Weather History Date:

Monday, March 17, 2014

  Actual Average Record
Temperature  
Mean Temperature 26 °F -  
Max Temperature 33 °F 47 °F 66 °F (2003)
Min Temperature 19 °F 27 °F 10 °F (1967)
Degree Days  
Heating Degree Days 40    
Moisture  
Dew Point 0 °F    
Average Humidity 36    
Maximum Humidity 63    
Minimum Humidity 23    
Precipitation  
Precipitation 0.00 in - - ()
Sea Level Pressure  
Sea Level Pressure 30.11 in    
Wind  
Wind Speed 8 mph (NNE)    
Max Wind Speed 12 mph    
Max Gust Speed 20 mph    
Visibility 10 miles    
Events      
Averages and records for this station are not official NWS values.
T = Trace of Precipitation, MM = Missing Value Source: NWS Daily Summary

Daily Weather History Graph

Daily Weather History Graph

Search for Another Location

Airport or City:

Trip Planner

Search our weather history database for the weather conditions in past years. The results will help you decide how hot, cold, wet, or windy it might be!

Date:

Astronomy

Mar. 17, 2014 Rise Set
Actual Time 7:02 AM EDT 7:02 PM EDT
Civil Twilight 6:34 AM EDT 7:30 PM EDT
Nautical Twilight 6:02 AM EDT 8:02 PM EDT
Astronomical Twilight 5:30 AM EDT 8:35 PM EDT
Moon 8:18 PM EDT (3/17) 7:15 AM EDT (3/17)
Length of Visible Light 12h 55m
Length of Day
12h 00m
Full, 99% of the Moon is Illuminated
Mar 17
Full
Mar 23
Last Quarter
Mar 30
New
Apr 7
First Quarter
Apr 15
Full

Hourly Weather History & Observations

Time (EDT) Temp. Windchill Dew Point Humidity Pressure Visibility Wind Dir Wind Speed Gust Speed Precip Events Conditions
12:53 AM 21.0 °F 9.9 °F -2.9 °F 35% 30.18 in 10.0 mi North 10.4 mph - N/A   Overcast
1:53 AM 21.0 °F 10.6 °F -0.0 °F 40% 30.17 in 10.0 mi North 9.2 mph - N/A   Overcast
2:53 AM 19.9 °F 7.9 °F -0.9 °F 40% 30.14 in 10.0 mi NNE 11.5 mph - N/A   Overcast
3:53 AM 19.0 °F 6.8 °F -0.0 °F 43% 30.12 in 10.0 mi NNE 11.5 mph - N/A   Overcast
4:53 AM 19.0 °F 7.5 °F -0.0 °F 43% 30.12 in 10.0 mi NNE 10.4 mph - N/A   Mostly Cloudy
5:53 AM 19.0 °F 6.8 °F -0.0 °F 43% 30.12 in 10.0 mi North 11.5 mph - N/A   Overcast
6:53 AM 19.0 °F 7.5 °F 1.0 °F 46% 30.10 in 10.0 mi NE 10.4 mph - N/A   Overcast
7:53 AM 19.0 °F 9.0 °F 1.0 °F 46% 30.12 in 10.0 mi NE 8.1 mph - N/A   Overcast
8:53 AM 19.9 °F 9.3 °F 1.0 °F 44% 30.14 in 10.0 mi NNE 9.2 mph - N/A   Overcast
9:53 AM 21.0 °F 9.9 °F -0.9 °F 38% 30.14 in 10.0 mi NNE 10.4 mph - N/A   Partly Cloudy
10:53 AM 21.9 °F 10.4 °F -2.9 °F 34% 30.11 in 10.0 mi NNE 11.5 mph 19.6 mph N/A   Clear
11:53 AM 25.0 °F 17.1 °F -4.0 °F 28% 30.11 in 10.0 mi NNE 6.9 mph - N/A   Clear
12:53 PM 26.1 °F 16.8 °F -2.0 °F 30% 30.10 in 10.0 mi NE 9.2 mph - N/A   Clear
1:53 PM 28.0 °F 20.8 °F -2.9 °F 26% 30.05 in 10.0 mi NE 6.9 mph - N/A   Clear
2:53 PM 30.0 °F 24.1 °F -2.0 °F 25% 30.06 in 10.0 mi NE 5.8 mph - N/A   Clear
3:53 PM 32.0 °F 25.6 °F -2.0 °F 23% 30.06 in 10.0 mi NNE 6.9 mph - N/A   Partly Cloudy
4:53 PM 32.0 °F 25.6 °F -2.0 °F 23% 30.05 in 10.0 mi North 6.9 mph - N/A   Mostly Cloudy
5:53 PM 32.0 °F 27.5 °F -0.9 °F 24% 30.06 in 10.0 mi NNE 4.6 mph - N/A   Overcast
6:53 PM 30.9 °F 27.5 °F -0.0 °F 27% 30.08 in 10.0 mi WNW 3.5 mph - N/A   Overcast
7:53 PM 30.0 °F - -0.0 °F 28% 30.09 in 10.0 mi Calm Calm - N/A   Overcast
8:53 PM 28.9 °F - -0.0 °F 29% 30.12 in 10.0 mi Calm Calm - N/A   Scattered Clouds
9:53 PM 26.1 °F - 6.1 °F 43% 30.13 in 10.0 mi Calm Calm - N/A   Clear
10:53 PM 23.0 °F - 9.0 °F 55% 30.15 in 10.0 mi Calm Calm - N/A   Clear
11:53 PM 21.0 °F - 10.0 °F 63% 30.15 in 10.0 mi Calm Calm - N/A   Clear